JTC501 KCRQ-KMHR

Flight info

Callsign JTC501
Flight time N/A
Altitude 32000
Route PADRZ2 EHF DCT NURAY DCT LIN DCT
Aircraft FA50/M-SDE3FGHIRWY/LB1

Departure

Time N/A
Airport McClellan-Palomar Airport (KCRQ)

Arrival

Time 2026-04-21 20:26
Airport Sacramento Mather Airport (KMHR)
Time Latitude Longitude Altitude Speed Heading
2026-04-21 19:39 34.40332 -118.52147 32135 ft 496 kts 342°
2026-04-21 19:40 34.47152 -118.53226 32087 ft 492 kts 342°
2026-04-21 19:40 34.53906 -118.54260 32086 ft 487 kts 342°
2026-04-21 19:41 34.60628 -118.55314 32085 ft 489 kts 342°
2026-04-21 19:41 34.67413 -118.56364 32082 ft 494 kts 343°
2026-04-21 19:42 34.74254 -118.57429 32069 ft 495 kts 343°
2026-04-21 19:42 34.81077 -118.58493 32066 ft 493 kts 343°
2026-04-21 19:43 34.87860 -118.59553 32062 ft 491 kts 342°
2026-04-21 19:43 34.94637 -118.60615 32059 ft 492 kts 342°
2026-04-21 19:44 35.01112 -118.62586 32070 ft 467 kts 324°
2026-04-21 19:44 35.03902 -118.64471 32072 ft 452 kts 314°
2026-04-21 19:44 35.06410 -118.66732 32147 ft 446 kts 310°
2026-04-21 19:45 35.11078 -118.71677 32060 ft 443 kts 308°
2026-04-21 19:45 35.15862 -118.76425 32033 ft 441 kts 309°
2026-04-21 19:46 35.20503 -118.81191 32041 ft 438 kts 308°
2026-04-21 19:46 35.25222 -118.85983 32064 ft 444 kts 309°
2026-04-21 19:47 35.29996 -118.90844 32062 ft 448 kts 308°
2026-04-21 19:47 35.34785 -118.95741 32111 ft 448 kts 309°
2026-04-21 19:48 35.39546 -119.00598 32071 ft 439 kts 308°
2026-04-21 19:48 35.44181 -119.05363 32071 ft 436 kts 308°
2026-04-21 19:49 35.49085 -119.10022 32055 ft 466 kts 319°
2026-04-21 19:49 35.52006 -119.11868 32057 ft 477 kts 324°
2026-04-21 19:49 35.55074 -119.13443 32065 ft 477 kts 327°
2026-04-21 19:50 35.60146 -119.15885 32084 ft 463 kts 324°
2026-04-21 19:50 35.66981 -119.19777 32104 ft 478 kts 325°
2026-04-21 19:51 35.73206 -119.22986 32101 ft 485 kts 326°
2026-04-21 19:51 35.76254 -119.24652 32102 ft 474 kts 324°
2026-04-21 19:51 35.79237 -119.26310 32106 ft 467 kts 324°
2026-04-21 19:52 35.85199 -119.29514 32103 ft 474 kts 324°
2026-04-21 19:52 35.91341 -119.32849 32080 ft 489 kts 325°
2026-04-21 19:53 35.97505 -119.36165 32078 ft 475 kts 324°
2026-04-21 19:53 36.03454 -119.39424 32077 ft 475 kts 324°
2026-04-21 19:54 36.09627 -119.42778 32084 ft 493 kts 325°
2026-04-21 19:54 36.15889 -119.46170 32089 ft 484 kts 324°
2026-04-21 19:55 36.21967 -119.49508 32096 ft 478 kts 324°
2026-04-21 19:55 36.28168 -119.52902 32081 ft 496 kts 325°
2026-04-21 19:56 36.34488 -119.56342 32080 ft 487 kts 325°
2026-04-21 19:56 36.37544 -119.58016 32096 ft 475 kts 325°
2026-04-21 19:56 36.40555 -119.59686 32075 ft 475 kts 324°
2026-04-21 19:57 36.46674 -119.63062 32074 ft 493 kts 326°
2026-04-21 19:57 36.53030 -119.66543 32064 ft 500 kts 326°
2026-04-21 19:58 36.59264 -119.70047 32065 ft 480 kts 321°
2026-04-21 19:58 36.64804 -119.74529 32060 ft 476 kts 311°
2026-04-21 19:59 36.70250 -119.79464 32052 ft 490 kts 316°
2026-04-21 19:59 36.75839 -119.84082 32064 ft 472 kts 314°
2026-04-21 20:00 36.81114 -119.88796 32053 ft 467 kts 315°
2026-04-21 20:00 36.86549 -119.93419 32049 ft 478 kts 315°
2026-04-21 20:01 36.91993 -119.98190 32043 ft 482 kts 315°
2026-04-21 20:01 36.97484 -120.02930 32058 ft 477 kts 315°
2026-04-21 20:02 37.01989 -120.06871 32036 ft 474 kts 315°
2026-04-21 20:02 37.08296 -120.12365 32061 ft 471 kts 316°
2026-04-21 20:03 37.13656 -120.17055 32036 ft 468 kts 316°
2026-04-21 20:03 37.18990 -120.21721 32030 ft 466 kts 316°
2026-04-21 20:04 37.24260 -120.26346 32050 ft 464 kts 316°
2026-04-21 20:04 37.29550 -120.30992 32020 ft 464 kts 316°
2026-04-21 20:04 37.32210 -120.33335 31635 ft 473 kts 316°
2026-04-21 20:05 37.34942 -120.35751 31021 ft 486 kts 317°
2026-04-21 20:05 37.37745 -120.38219 30368 ft 499 kts 317°
2026-04-21 20:05 37.40631 -120.40753 29690 ft 511 kts 319°
2026-04-21 20:05 37.43563 -120.43334 28959 ft 518 kts 319°
2026-04-21 20:06 37.46528 -120.45956 28263 ft 524 kts 319°
2026-04-21 20:06 37.49521 -120.48609 27566 ft 529 kts 320°
2026-04-21 20:06 37.52546 -120.51286 26858 ft 533 kts 320°
2026-04-21 20:06 37.55586 -120.53976 26148 ft 536 kts 320°
2026-04-21 20:07 37.57608 -120.55767 25703 ft 537 kts 321°
2026-04-21 20:07 37.61709 -120.59415 24738 ft 541 kts 321°
2026-04-21 20:07 37.63753 -120.61236 24265 ft 543 kts 321°
2026-04-21 20:07 37.67821 -120.64858 23729 ft 537 kts 321°
2026-04-21 20:08 37.70870 -120.67578 23116 ft 536 kts 321°
2026-04-21 20:08 37.73904 -120.70289 22691 ft 531 kts 321°
2026-04-21 20:08 37.75904 -120.72077 22135 ft 534 kts 321°
2026-04-21 20:08 37.78943 -120.74793 21578 ft 534 kts 321°
2026-04-21 20:09 37.81957 -120.77484 21235 ft 528 kts 321°
2026-04-21 20:09 37.84946 -120.80161 20826 ft 525 kts 321°
2026-04-21 20:09 37.87918 -120.82833 20433 ft 522 kts 321°
2026-04-21 20:09 37.90838 -120.85451 19665 ft 503 kts 321°
2026-04-21 20:10 37.93638 -120.87954 18309 ft 484 kts 321°
2026-04-21 20:10 37.96331 -120.90375 16865 ft 463 kts 320°
2026-04-21 20:10 37.98895 -120.92695 15533 ft 444 kts 320°
2026-04-21 20:10 38.01364 -120.94925 14310 ft 428 kts 320°
2026-04-21 20:11 38.03681 -120.97000 14223 ft 386 kts 321°
2026-04-21 20:11 38.05776 -120.98848 14211 ft 351 kts 324°
2026-04-21 20:11 38.07900 -121.00115 14203 ft 326 kts 337°
2026-04-21 20:11 38.10033 -121.00794 14051 ft 309 kts 346°
2026-04-21 20:12 38.12132 -121.01150 13646 ft 302 kts 351°
2026-04-21 20:12 38.14216 -121.01364 13131 ft 298 kts 352°
2026-04-21 20:12 38.16263 -121.01616 12627 ft 293 kts 350°
2026-04-21 20:12 38.18274 -121.01920 12132 ft 289 kts 349°
2026-04-21 20:13 38.20235 -121.02207 11651 ft 286 kts 350°
2026-04-21 20:13 38.22194 -121.02475 11233 ft 280 kts 350°
2026-04-21 20:13 38.24112 -121.02738 10857 ft 274 kts 350°
2026-04-21 20:13 38.25986 -121.03004 10505 ft 268 kts 350°
2026-04-21 20:14 38.27837 -121.03266 10150 ft 267 kts 350°
2026-04-21 20:14 38.29674 -121.03524 9792 ft 265 kts 350°
2026-04-21 20:14 38.31495 -121.03781 9424 ft 262 kts 350°
2026-04-21 20:14 38.33301 -121.04035 9074 ft 259 kts 350°
2026-04-21 20:15 38.35085 -121.04287 8734 ft 257 kts 350°
2026-04-21 20:15 38.36853 -121.04537 8395 ft 255 kts 350°
2026-04-21 20:15 38.38587 -121.04782 8063 ft 253 kts 350°
2026-04-21 20:15 38.40327 -121.05029 7731 ft 251 kts 350°
2026-04-21 20:16 38.42059 -121.05274 7394 ft 249 kts 351°
2026-04-21 20:16 38.43776 -121.05518 7071 ft 248 kts 351°
2026-04-21 20:16 38.45484 -121.05759 6749 ft 246 kts 351°
2026-04-21 20:16 38.47179 -121.05999 6429 ft 244 kts 351°
2026-04-21 20:17 38.48863 -121.06238 6088 ft 242 kts 351°
2026-04-21 20:17 38.50538 -121.06184 5767 ft 243 kts 13°
2026-04-21 20:17 38.52133 -121.05454 5431 ft 244 kts 22°
2026-04-21 20:17 38.53700 -121.04622 5103 ft 244 kts 22°
2026-04-21 20:18 38.55252 -121.03818 4772 ft 243 kts 21°
2026-04-21 20:18 38.56816 -121.03018 4435 ft 242 kts 21°
2026-04-21 20:18 38.58381 -121.02232 4100 ft 241 kts 21°
2026-04-21 20:18 38.59940 -121.01460 3764 ft 240 kts 21°
2026-04-21 20:19 38.61489 -121.00708 3512 ft 234 kts 21°
2026-04-21 20:19 38.62974 -120.99998 3511 ft 221 kts 21°
2026-04-21 20:19 38.64442 -120.99644 3514 ft 212 kts 353°
2026-04-21 20:19 38.65707 -121.00441 3518 ft 201 kts 309°
2026-04-21 20:20 38.66405 -121.01938 3509 ft 194 kts 295°
2026-04-21 20:20 38.67046 -121.03441 3507 ft 191 kts 296°
2026-04-21 20:20 38.67595 -121.04974 3521 ft 190 kts 281°
2026-04-21 20:20 38.67852 -121.06625 3514 ft 189 kts 276°
2026-04-21 20:21 38.67902 -121.08200 3521 ft 183 kts 249°
2026-04-21 20:21 38.67172 -121.09456 3515 ft 177 kts 216°
2026-04-21 20:21 38.66323 -121.10573 3454 ft 176 kts 231°
2026-04-21 20:21 38.65647 -121.11903 3240 ft 181 kts 234°
2026-04-21 20:22 38.64906 -121.13217 2984 ft 182 kts 228°
2026-04-21 20:22 38.63459 -121.15728 2504 ft 170 kts 229°
2026-04-21 20:22 38.62763 -121.16920 2275 ft 165 kts 229°
2026-04-21 20:23 38.62100 -121.18096 2055 ft 160 kts 229°
2026-04-21 20:23 38.61482 -121.19161 1841 ft 138 kts 231°
2026-04-21 20:23 38.60959 -121.20078 1668 ft 117 kts 229°
2026-04-21 20:23 38.60496 -121.20881 1507 ft 110 kts 230°
2026-04-21 20:24 38.60041 -121.21673 1358 ft 110 kts 230°
2026-04-21 20:24 38.59593 -121.22452 1210 ft 107 kts 230°
2026-04-21 20:24 38.59154 -121.23215 1071 ft 109 kts 230°
2026-04-21 20:24 38.58697 -121.24008 925 ft 113 kts 232°
2026-04-21 20:25 38.58229 -121.24828 778 ft 116 kts 230°
2026-04-21 20:25 38.57741 -121.25672 619 ft 121 kts 231°
2026-04-21 20:25 38.57242 -121.26548 456 ft 122 kts 232°
2026-04-21 20:25 38.56746 -121.27426 288 ft 120 kts 231°
2026-04-21 20:26 38.56250 -121.28278 108 ft 116 kts 231°
2026-04-21 20:26 38.55828 -121.29003 91 ft 87 kts 234°
2026-04-21 20:26 38.55573 -121.29449 87 ft 33 kts 234°
2026-04-21 20:26 38.55505 -121.29587 83 ft 14 kts 269°
2026-04-21 20:27 38.55567 -121.29685 87 ft 15 kts 315°
2026-04-21 20:27 38.55638 -121.29775 87 ft 14 kts 316°
2026-04-21 20:27 38.55715 -121.29868 88 ft 16 kts 316°
2026-04-21 20:27 38.55799 -121.29972 91 ft 17 kts 317°
2026-04-21 20:28 38.55856 -121.30011 88 ft 8 kts 39°
2026-04-21 20:28 38.55886 -121.29958 91 ft 9 kts 56°
2026-04-21 20:28 38.55926 -121.29889 91 ft 11 kts 51°
2026-04-21 20:28 38.55974 -121.29807 91 ft 13 kts 57°
2026-04-21 20:29 38.56026 -121.29715 91 ft 13 kts 51°
2026-04-21 20:29 38.56082 -121.29671 91 ft 9 kts 355°
2026-04-21 20:29 38.56151 -121.29677 92 ft 11 kts 354°
2026-04-21 20:29 38.56240 -121.29685 92 ft 14 kts 356°
2026-04-21 20:30 38.56340 -121.29693 95 ft 13 kts 355°
2026-04-21 20:30 38.56385 -121.29710 91 ft 7 kts 301°
2026-04-21 20:30 38.56373 -121.29772 91 ft 8 kts 202°
2026-04-21 20:30 38.56360 -121.29739 92 ft 6 kts 85°
2026-04-21 20:31 38.56360 -121.29733 92 ft 0 kts 85°